Weather observations for the past three days for
Quillayute, Quillayute State Airport
| Date | Time (pdt) | Wind (mph) | Vis. (mi.) | Weather | Sky Cond. | Temperature (ºF) | Relative Humidity | Wind Chill (°F) | Heat Index (°F) | Pressure | Precipitation (in) | ||||||
|---|---|---|---|---|---|---|---|---|---|---|---|---|---|---|---|---|---|
| Air | Dwpt | 6 hour | altimeter (in) | sea level (mb) | 1 hr | 3 hr | 6 hr | ||||||||||
| Max. | Min. | ||||||||||||||||
| 07 | 12:53 | S 9 | 10.00 | Fair | CLR | 57.9 | 43 | 58% | 30.12 | 1020.0 | |||||||
| 07 | 11:53 | SW 8 | 10.00 | Fair | CLR | 57.9 | 44.1 | 60% | 30.13 | 1020.3 | |||||||
| 07 | 10:53 | SW 7 | 10.00 | A Few Clouds | FEW029 | 55.9 | 43 | 57 | 46 | 62% | 30.14 | 1020.5 | |||||
| 07 | 09:53 | SE 5 | 10.00 | Fair | CLR | 55 | 42.1 | 62% | 30.14 | 1020.7 | |||||||
| 07 | 08:53 | SW 6 | 10.00 | Overcast | OVC027 | 52 | 42.1 | 69% | 30.15 | 1020.9 | |||||||
| 07 | 07:53 | Calm | 10.00 | Partly Cloudy | SCT027 | 48.9 | 44.1 | 83% | 30.15 | 1021.1 | |||||||
| 07 | 06:53 | E 5 | 10.00 | Overcast | OVC025 | 46.9 | 42.1 | 83% | 45 | 30.15 | 1020.9 | ||||||
| 07 | 05:53 | E 3 | 10.00 | Overcast | OVC025 | 46 | 43 | 89% | 30.15 | 1020.8 | |||||||
| 07 | 04:53 | Calm | 10.00 | Overcast | OVC024 | 48 | 43 | 50 | 48 | 83% | 30.15 | 1021.1 | |||||
| 07 | 03:53 | Calm | 10.00 | Overcast | OVC025 | 48 | 42.1 | 80% | 30.16 | 1021.4 | |||||||
| 07 | 02:53 | Calm | 10.00 | Overcast | OVC024 | 48 | 42.1 | 80% | 30.17 | 1021.6 | |||||||
| 07 | 01:53 | Calm | 10.00 | Overcast | OVC025 | 48.9 | 41 | 74% | 30.17 | 1021.8 | |||||||
| 07 | 00:53 | Vrbl 5 | 10.00 | Overcast | OVC024 | 48.9 | 42.1 | 77% | 48 | 30.17 | 1021.8 | ||||||
| 06 | 23:53 | Calm | 10.00 | Overcast | OVC023 | 48.9 | 42.1 | 77% | 30.17 | 1021.7 | |||||||
| 06 | 22:53 | W 5 | 10.00 | Overcast | OVC022 | 48.9 | 43 | 55.9 | 48.9 | 80% | 48 | 30.17 | 1021.8 | ||||
| 06 | 21:53 | W 3 | 10.00 | Overcast | OVC022 | 50 | 44.1 | 80% | 30.18 | 1022.0 | |||||||
| 06 | 20:53 | W 6 | 10.00 | Overcast | FEW015 OVC028 | 50 | 46 | 86% | 48 | 30.17 | 1021.8 | ||||||
| 06 | 19:53 | W 7 | 10.00 | Overcast | FEW017 OVC028 | 52 | 46.9 | 83% | 30.17 | 1021.5 | |||||||
| 06 | 18:53 | W 6 | 10.00 | Overcast | BKN012 OVC030 | 53.1 | 48 | 83% | 30.16 | 1021.5 | |||||||
| 06 | 17:53 | NW 8 | 10.00 | Overcast | SCT012 BKN019 OVC026 | 54 | 50 | 87% | 30.16 | 1021.4 | |||||||
| 06 | 16:53 | SW 8 | 10.00 | Overcast | BKN016 OVC024 | 54 | 48 | 55 | 51.1 | 80% | 30.16 | 1021.3 | |||||
| 06 | 15:53 | W 7 | 10.00 | Overcast | SCT012 OVC022 | 55 | 48.9 | 80% | 30.16 | 1021.3 | |||||||
| 06 | 14:53 | SW 5 | 8.00 | Overcast | BKN010 OVC015 | 53.1 | 50 | 89% | 30.17 | 1021.6 | |||||||
| 06 | 13:53 | S 6 | 3.00 | Fog/Mist | BKN007 OVC011 | 53.1 | 51.1 | 93% | 30.16 | 1021.4 | |||||||
| 06 | 12:53 | Vrbl 5 | 4.00 | Fog/Mist | OVC008 | 52 | 48.9 | 89% | 30.16 | 1021.2 | |||||||
| 06 | 11:53 | S 6 | 9.00 | Overcast | OVC012 | 52 | 48.9 | 89% | 30.15 | 1021.0 | |||||||
| 06 | 10:53 | S 7 | 4.00 | Fog/Mist | OVC010 | 52 | 48.9 | 53.1 | 50 | 89% | 30.14 | 1020.6 | |||||
| 06 | 09:53 | SW 3 | 4.00 | Fog/Mist | OVC013 | 51.1 | 46.9 | 86% | 30.14 | 1020.5 | |||||||
| 06 | 08:53 | Vrbl 3 | 10.00 | Overcast | OVC014 | 52 | 46 | 80% | 30.13 | 1020.4 | |||||||
| 06 | 07:53 | Calm | 10.00 | Overcast | OVC013 | 51.1 | 46.9 | 86% | 30.13 | 1020.1 | |||||||
| 06 | 06:53 | SW 5 | 10.00 | Overcast | OVC013 | 51.1 | 46.9 | 86% | 30.1 | 1019.4 | |||||||
| 06 | 03:53 | Calm | 10.00 | Overcast | OVC014 | 51.1 | 46 | 83% | 30.08 | 1018.8 | |||||||
| 06 | 02:53 | NW 3 | 10.00 | Overcast | OVC013 | 51.1 | 46.9 | 86% | 30.08 | 1018.6 | |||||||
| 06 | 01:53 | W 3 | 10.00 | Overcast | OVC013 | 51.1 | 46.9 | 86% | 30.07 | 1018.3 | |||||||
| 06 | 00:53 | W 6 | 10.00 | Overcast | OVC011 | 51.1 | 46.9 | 86% | 30.07 | 1018.2 | |||||||
| 05 | 23:53 | W 3 | 10.00 | Overcast | OVC011 | 52 | 48 | 86% | 30.05 | 1017.7 | |||||||
| 05 | 22:53 | S 3 | 10.00 | Overcast | OVC011 | 52 | 48 | 57 | 52 | 86% | 30.05 | 1017.5 | |||||
| 05 | 21:53 | W 3 | 10.00 | Overcast | OVC012 | 52 | 48 | 86% | 30.05 | 1017.5 | |||||||
| 05 | 20:53 | W 5 | 10.00 | Overcast | OVC014 | 52 | 48 | 86% | 30.03 | 1017.1 | |||||||
| 05 | 19:53 | Vrbl 5 | 10.00 | Overcast | OVC014 | 54 | 48.9 | 83% | 30.01 | 1016.4 | |||||||
| 05 | 18:53 | W 6 | 10.00 | Overcast | OVC013 | 54 | 48.9 | 83% | 30.02 | 1016.4 | |||||||
| 05 | 17:53 | W 7 | 10.00 | Overcast | OVC015 | 55 | 48.9 | 80% | 30.02 | 1016.4 | |||||||
| 05 | 16:53 | Vrbl 6 | 10.00 | Overcast | OVC018 | 57 | 48.9 | 62.1 | 55 | 74% | 30.02 | 1016.6 | |||||
| 05 | 15:53 | W 6 | 10.00 | Overcast | OVC020 | 57.9 | 48.9 | 72% | 30.03 | 1017.0 | |||||||
| 05 | 14:53 | SW 9 | 10.00 | Overcast | OVC021 | 60.1 | 48.9 | 67% | 30.04 | 1017.3 | |||||||
| 05 | 13:53 | Calm | 10.00 | Overcast | OVC020 | 60.1 | 50 | 70% | 30.04 | 1017.1 | |||||||
| 05 | 12:53 | SW 9 | 10.00 | Overcast | OVC019 | 57.9 | 48.9 | 72% | 30.04 | 1017.2 | |||||||
| 05 | 11:53 | S 6 | 10.00 | Overcast | OVC015 | 55.9 | 48.9 | 77% | 30.03 | 1017.0 | |||||||
| 05 | 10:53 | S 7 | 10.00 | Overcast | OVC014 | 55 | 48.9 | 55 | 52 | 80% | 30.02 | 1016.6 | |||||
| 05 | 09:53 | SW 6 | 10.00 | Overcast | OVC014 | 54 | 48 | 80% | 30.01 | 1016.3 | |||||||
| 05 | 08:53 | SW 3 | 10.00 | Overcast | OVC011 | 53.1 | 48.9 | 86% | 30 | 1016.0 | |||||||
| 05 | 07:53 | Vrbl 3 | 10.00 | Overcast | OVC011 | 53.1 | 48.9 | 86% | 29.99 | 1015.4 | |||||||
| 05 | 06:53 | Calm | 10.00 | Overcast | OVC013 | 52 | 48.9 | 89% | 29.97 | 1014.7 | |||||||
| 05 | 05:53 | Calm | 10.00 | Overcast | OVC010 | 52 | 48.9 | 89% | 29.96 | 1014.4 | |||||||
| 05 | 04:53 | S 3 | 10.00 | Overcast | OVC008 | 52 | 48.9 | 53.1 | 52 | 89% | 29.95 | 1014.3 | |||||
| 05 | 03:53 | Vrbl 5 | 10.00 | Overcast | OVC007 | 52 | 50 | 93% | 29.94 | 1013.8 | |||||||
| 05 | 02:53 | S 7 | 10.00 | Overcast | OVC007 | 52 | 50 | 93% | 29.94 | 1013.7 | |||||||
| 05 | 01:53 | S 5 | 10.00 | Overcast | OVC008 | 53.1 | 50 | 89% | 29.93 | 1013.6 | |||||||
| 05 | 00:53 | Vrbl 3 | 10.00 | Overcast | OVC008 | 53.1 | 50 | 89% | 29.93 | 1013.6 | |||||||
| 04 | 23:53 | Vrbl 5 | 10.00 | Overcast | OVC008 | 53.1 | 50 | 89% | 29.92 | 1013.2 | |||||||
| 04 | 22:53 | S 6 | 10.00 | Overcast | OVC008 | 53.1 | 50 | 59 | 53.1 | 89% | 29.92 | 1013.2 | |||||
| 04 | 21:53 | Vrbl 3 | 10.00 | Overcast | OVC009 | 53.1 | 50 | 89% | 29.91 | 1012.9 | |||||||
| 04 | 20:53 | Vrbl 5 | 10.00 | Overcast | OVC009 | 53.1 | 50 | 89% | 29.9 | 1012.6 | |||||||
| 04 | 19:53 | Vrbl 5 | 10.00 | Overcast | OVC009 | 54 | 50 | 87% | 29.89 | 1012.2 | |||||||
| 04 | 18:53 | SW 9 | 10.00 | Overcast | OVC010 | 55 | 50 | 83% | 29.89 | 1012.2 | |||||||
| 04 | 17:53 | S 8 | 10.00 | Overcast | OVC011 | 57 | 51.1 | 81% | 29.9 | 1012.4 | |||||||
| 04 | 16:53 | S 10 | 10.00 | Fair | CLR | 60.1 | 51.1 | 64 | 59 | 72% | 29.9 | 1012.6 | |||||
| 04 | 15:53 | S 14 G 22 | 10.00 | Fair | CLR | 61 | 51.1 | 70% | 29.91 | 1012.7 | |||||||
| 04 | 14:53 | SW 10 G 23 | 10.00 | Fair | CLR | 62.1 | 51.1 | 67% | 29.91 | 1012.9 | |||||||
| 04 | 13:53 | S 13 G 22 | 10.00 | Fair | CLR | 62.1 | 52 | 70% | 29.91 | 1013.0 | |||||||
| Date | Time (pdt) | Wind (mph) | Vis. (mi.) | Weather | Sky Cond. | Air | Dwpt | Max. | Min. | Relative Humidity | Wind Chill (°F) | Heat Index (°F) | altimeter (in) | sea level (mb) | 1 hr | 3 hr | 6 hr |
| 6 hour | |||||||||||||||||
| Temperature (ºF) | Pressure | Precipitation (in) | |||||||||||||||